Location: Bennemühlen
(52.5740°N, 9.7135°E)
Time: 06:42:57
(UTC+00:00)

A-11 Canister half - Pass Details

Date: 24 February 2026
Orbit: 1512 x 1687 km, 47.2° (Epoch: 8 March)

Event Time Altitude Azimuth Distance (km) Brightness Sun altitude
Rises 18:09:25 0° 214° (SW) 4,925 12.1 -12.7°
Reaches altitude 10° 18:12:52 10° 207° (SSW) 3,944 11.5 -13.2°
Maximum altitude 18:21:51 38° 145° (SE) 2,394 9.7 -14.5°
Enters shadow 18:27:57 20° 92° (E) 3,207 10.0 -15.5°
Drops below altitude 10° 18:30:44 10° 82° (E) 3,913 - -15.9°
Sets 18:34:08 0° 75° (ENE) 4,883 - -16.4°
